Showing default

INTASAT, 7531

Orbit data source: Space-Track

INTASAT, 7531 is a payload satellite owned by INTA (ES) in SSO that was launched on Fri, 15 Nov 1974 UTC via a DELTA 2310 launch vehicle from the Air Force Western Test Range (AFWTR). Payload-class satellites include a variety of spacecraft equipped with specific instruments for various scientific and technological missions. These include communications satellites like Starlink; space stations such as the ISS; scientific satellites like the Hubble; Earth observation satellites from companies like Planet Labs, Umbra, and HawkEye 360; GPS; miniature CubeSats for education and research; and military/defense satellites.

Loading next visibility...
Identifier
7531, 1974-089C
Orbit
SSO
Country
Flag of ESES / SPN
Related business
Manufacturer
INTA
Mission
Spacecraft
Bus & Motor
INTASAT, Unknown motor
Mass
25 kg wet, 25 kg dry
Launch date (UTC)
1974-11-15 (52 years ago)
Launch vehicle
DELTA 2310
Launch site
Air Force Western Test Range (AFWTR)
Object type
Payload
Rocket body
Debris
Shape & HBR
POLY + 2 ANT, 1.1 m
Radar Cross Section
Medium (>0.1 m² and <1 m²)

Expand to show TLE details & history
Last TLE update: 1 day ago

TLE from 1 day ago
0 INTASAT
1 07531U 74089C   26257.05665962 -.00000041  00000-0  31194-4 0  9993
2 07531 101.9957 270.3558 0011211 334.7405  42.2927 12.53532151371412
Epoch: 2026-09-14T01:21Z
TLE epoch observation values (Epoch: 2026-09-14T01:21:35.391Z)
Latitude
16.72323°
Longitude
-106.72633°
Altitude
1,445.222 km
Speed
7.144 km/s
True Right ascension
17h 46m 51s
True Declination
16° 38' 13"
Sunlit
Object was in daylight at epoch
Visualization orbit readout
Latitude
Unknown
Longitude
Unknown
Altitude
Unknown
Speed
Unknown
Apparent Right ascension
Unknown
Apparent Declination
Unknown
Sunlit
N/A
Visualization observer readout
Local Sidereal Time
17:28:42
Azimuth
Unknown
Elevation
Unknown
Doppler factor
Unknown
Orbital elements
Apogee altitude
1,456.085 km
Perigee altitude
1,438.539 km
Semi-major axis
7,825.449 km
Eccentricity
0.00112
Inclination
101.9957°
RAAN
270.3558°
Arg. of periapsis
334.7405°
True anomaly
42.37924°
Mean anomaly
42.2927°
Eccentric anomaly
42.33596°
Mean motion
3.1353 °/min
Orbital period
114.82 mins
BSTAR
0.000031194
Loading maneuver chart data...
Computing Atmospheric mass density...
Loading historical data...
Loading historical data...
Loading historical data...
Loading historical data...
Loading historical data...
Loading historical data...
Loading historical data...

Documentation

Showing up to 5 results
|